Temperature
21 21 21 21 21 21 21 21 21 21 21 21 20 20 20 20 20 20 20 20 20 19 19 19 19 19 19 19 19 19 19 19 19 19 18 18 18 18 18 18 18 17 17
23 22 21 21 21 21 21 21 21 21 21 21 20 20 20 20 20 20 20 20 19 19 19 19 19 19 19 19 19 19 18 18 18 18 18 18 18 18 18 18 17 17 17
23 22 22 21 21 21 21 21 21 21 21 20 20 20 20 20 20 20 19 19 19 19 19 19 19 19 19 19 19 18 18 18 18 18 17 17 17 17 17 17 17 17 17
23 22 22 21 21 21 21 21 21 21 20 20 20 20 20 20 20 20 19 19 19 19 19 19 19 19 19 19 18 18 18 18 18 18 17 17 17 17 17 17 17 17 17
22 22 22 22 21 21 21 21 21 21 20 20 20 20 20 20 20 19 19 19 19 19 19 19 19 19 19 18 18 18 18 18 18 18 17 17 17 17 17 17 17 17 17
22 22 22 22 21 21 21 21 21 20 20 20 20 20 20 20 19 19 19 19 19 19 19 19 19 18 18 18 18 18 18 18 18 17 17 17 17 17 17 17 17 17 17
22 22 21 21 21 21 21 21 20 20 20 20 20 20 20 19 19 19 19 19 19 19 19 19 18 18 18 18 18 18 17 17 17 17 17 17 17 17 17 17 17 17 17
22 21 21 21 21 21 21 20 20 20 20 20 20 20 19 19 19 19 19 19 19 19 19 18 18 18 18 17 17 17 17 18 17 17 17 17 17 17 17 17 17 17 17
22 21 21 21 21 20 20 20 20 20 20 20 19 19 19 19 19 19 19 19 19 19 18 18 18 18 17 17 17 17 17 17 17 17 17 17 17 17 17 17 17 17 17
21 21 21 20 20 20 20 20 20 20 19 19 19 19 19 19 19 19 19 19 18 18 18 18 18 18 17 17 17 17 17 17 17 17 17 17 17 17 17 17 17 17 17
20 20 20 20 20 20 20 19 19 19 19 19 19 19 19 19 18 18 18 18 18 18 18 18 18 18 17 17 17 17 17 17 17 17 17 17 17 17 17 17 17 17 16
20 20 20 20 20 20 19 19 19 19 19 19 19 19 19 18 18 18 18 18 18 18 18 18 18 17 17 17 17 17 17 17 17 17 17 17 17 17 17 17 17 16 16
20 20 19 19 19 19 19 19 19 19 19 18 18 18 18 18 18 18 18 18 18 18 18 18 17 17 17 17 17 17 17 17 17 17 17 17 17 17 17 17 16 16 16
20 19 19 19 19 19 19 19 19 19 18 18 18 18 18 18 18 18 18 18 18 18 18 17 17 17 17 17 17 17 17 17 17 17 17 17 17 17 16 16 16 16 16
20 19 19 19 19 18 18 18 18 18 18 18 18 18 18 18 18 18 17 17 17 17 17 17 17 17 17 17 17 17 17 17 17 17 17 17 17 16 16 16 16 16 16
19 19 19 19 18 18 18 18 18 18 18 18 18 18 17 17 18 17 17 17 17 17 17 17 17 17 17 17 17 17 17 17 17 17 17 17 16 16 16 16 16 15 15
19 19 19 18 18 18 18 18 17 17 17 17 17 17 17 17 17 17 17 17 17 17 17 17 16 16 17 17 17 17 17 17 17 17 17 16 16 16 16 16 15 15 15
18 18 18 18 18 17 17 17 17 17 17 17 17 17 16 16 17 16 17 17 16 16 16 16 16 16 16 16 16 16 17 16 16 16 16 16 16 16 15 15 15 15 15
17 17 17 17 17 17 17 17 17 17 16 16 16 16 16 16 16 16 16 16 16 16 16 16 16 16 16 16 16 16 16 16 16 16 16 16 15 15 15 15 15 14 14
16 16 16 16 16 16 16 16 16 16 16 16 16 16 16 16 16 16 16 16 16 15 15 15 15 15 15 15 15 15 15 15 15 15 15 15 15 15 15 15 14 14 14
16 16 16 15 15 16 16 16 16 16 15 15 15 15 15 15 15 15 15 15 15 15 15 15 15 15 15 15 15 14 14 14 14 14 14 14 14 14 14 14 14 13 13
15 15 15 15 15 15 15 15 15 15 15 15 15 15 15 15 15 15 15 15 15 15 15 15 15 15 14 14 14 14 13 13 13 13 13 14 14 13 13 13 13 13 12
14 14 14 14 14 14 15 15 15 14 14 14 14 14 14 14 14 14 14 14 14 14 14 14 14 14 14 14 14 14 13 13 13 13 13 13 13 13 12 12 12 12 12
13 13 14 14 14 14 14 14 14 14 14 14 14 14 14 14 14 14 14 14 14 14 14 14 14 14 14 14 14 14 14 14 13 12 12 12 12 12 12 11 11 11 11
12 13 13 13 13 13 13 14 13 13 13 13 13 13 13 13 13 13 13 13 13 13 13 13 13 13 14 14 14 13 13 13 13 13 12 11 11 11 11 11 11 10 10
12 12 12 12 12 12 12 12 12 12 12 12 12 12 12 12 12 12 13 13 13 13 13 13 13 13 13 13 13 13 13 13 13 13 12 11 11 10 10 10 10 10 10
Wind_Speed
9 15 22 21 19 18 18 19 20 21 22 23 23 23 22 22 22 20 19 17 16 15 14 13 12 14 15 16 17 17 18 18 19 19 19 18 17 17 17 17 16 15 17
15 18 23 22 21 20 19 19 20 20 21 22 22 22 21 21 20 19 18 17 16 15 14 13 13 14 15 16 16 17 18 18 18 18 18 17 17 17 17 16 15 14 16
17 19 22 23 22 21 20 20 20 20 20 21 21 21 20 20 19 18 17 16 15 15 14 14 14 14 15 16 16 17 17 16 16 16 16 14 15 16 16 16 16 16 15
17 18 20 23 22 21 20 20 20 20 20 20 19 19 19 19 18 18 17 16 15 14 14 14 14 14 14 15 15 15 15 15 14 14 12 12 13 15 16 16 16 15 15
14 17 20 23 22 21 21 20 20 20 19 19 18 18 18 17 17 17 16 15 14 14 14 14 14 13 14 14 14 14 14 14 13 12 10 10 11 15 16 16 15 15 14
14 16 20 23 22 21 20 20 20 20 19 18 18 17 17 16 16 15 15 14 14 13 13 13 13 13 13 13 13 13 12 12 11 10 10 10 11 14 15 15 15 14 14
12 12 18 21 21 20 19 19 19 19 18 18 17 16 16 15 15 14 14 13 13 13 12 12 12 12 12 11 11 10 10 11 10 10 9 10 11 14 14 15 14 14 14
12 11 15 19 20 20 19 18 18 18 17 17 16 16 15 14 14 13 13 12 12 12 12 12 11 11 10 9 9 8 7 9 9 9 10 10 12 14 13 14 14 14 13
9 9 10 14 16 17 17 17 17 17 17 16 16 15 14 13 13 12 12 11 11 11 11 11 11 10 9 8 7 6 6 7 9 9 10 10 13 13 13 13 13 13 13
8 8 7 9 12 13 13 15 16 16 16 15 15 14 14 13 13 12 11 11 11 10 10 10 10 9 8 7 6 5 5 6 7 8 9 10 13 13 13 13 13 12 12
7 6 7 7 8 11 11 13 14 14 15 15 14 14 13 11 11 11 11 11 11 11 10 10 10 9 7 6 5 5 5 5 6 6 8 10 13 13 13 13 13 12 12
9 7 5 6 6 8 9 9 9 10 10 11 10 11 11 9 9 9 10 12 12 11 10 9 9 8 7 5 4 4 4 4 5 5 7 10 12 12 12 12 12 12 11
8 6 5 5 5 5 4 6 6 6 7 8 9 9 9 8 7 7 7 9 9 9 8 8 7 6 6 5 4 4 4 4 5 5 7 10 12 12 12 12 12 11 11
7 7 5 5 4 4 4 4 5 5 5 5 7 8 8 5 5 5 5 5 5 6 5 5 4 5 6 5 5 5 5 5 5 6 7 9 10 11 11 12 11 11 10
5 5 5 5 5 4 3 2 3 4 5 6 7 8 8 6 5 5 4 5 5 5 5 5 5 5 4 5 5 5 5 5 5 5 6 8 9 10 11 11 11 11 10
3 3 3 3 3 3 3 3 2 3 4 5 6 8 9 7 5 5 4 4 5 6 6 5 5 4 3 4 3 4 4 5 5 5 5 7 9 10 11 10 11 11 11
3 3 2 3 3 2 2 2 2 2 3 3 4 5 7 7 6 5 4 4 4 6 5 5 4 4 3 3 3 4 4 4 5 5 5 6 7 9 11 11 11 12 12
2 2 1 2 3 2 2 1 1 2 2 3 4 4 5 5 6 5 4 4 5 5 5 4 4 3 3 3 3 3 3 4 4 5 6 6 7 8 10 12 12 12 12
2 2 2 2 2 2 2 1 1 2 2 2 2 2 3 4 5 4 3 3 5 4 4 5 4 4 4 5 4 3 3 3 3 5 6 7 8 9 10 11 12 12 12
4 3 3 2 2 2 2 2 2 2 2 2 2 1 1 1 2 3 3 3 3 4 4 4 4 4 4 5 5 4 3 3 3 4 5 6 8 9 10 10 11 11 12
7 6 5 4 3 2 1 1 1 1 1 1 1 2 2 1 1 2 2 3 4 4 4 5 4 5 4 5 4 3 3 4 4 3 4 5 7 9 10 11 11 11 11
7 6 5 4 4 3 2 1 1 1 1 1 2 3 3 3 1 2 2 3 3 3 4 5 5 4 4 5 4 4 3 2 2 3 3 4 6 8 9 10 11 11 11
7 7 5 5 4 4 3 2 2 2 1 2 2 2 3 3 3 2 1 1 2 3 3 5 6 6 5 4 3 4 5 4 2 2 2 4 5 5 6 9 10 11 11
7 6 7 6 6 5 4 3 2 1 1 1 1 1 3 4 4 4 2 1 1 1 2 3 4 4 6 6 3 1 2 4 4 3 2 2 5 5 5 6 8 10 11
7 7 7 7 8 7 6 5 3 2 2 2 3 4 4 4 5 5 5 3 2 1 1 1 2 3 4 5 4 3 3 3 3 4 4 3 3 3 4 5 7 8 9
8 8 8 8 8 8 7 6 5 4 5 5 5 5 4 4 4 7 7 5 4 3 3 1 0 2 2 3 4 3 3 3 3 4 4 5 4 3 4 4 4 6 7
Wind_Direction
146 149 149 147 142 136 129 124 122 122 122 125 127 130 133 135 136 137 138 138 138 135 131 127 122 118 117 118 120 121 122 124 125 126 126 126 124 122 119 117 116 115 115
146 150 150 148 144 139 134 129 125 123 123 124 126 128 131 133 135 136 138 138 138 135 132 129 126 124 124 124 124 126 128 129 131 131 131 130 128 126 124 122 121 121 118
141 148 149 149 146 142 137 133 130 128 126 127 128 130 131 133 134 136 137 138 137 135 134 132 130 129 129 129 129 131 132 133 133 132 129 129 132 131 130 129 127 124 122
140 145 149 150 147 143 140 136 134 133 132 131 131 133 134 135 137 138 139 139 138 136 135 134 132 132 132 133 134 135 135 133 132 128 124 132 138 138 136 133 132 130 127
138 144 151 150 148 145 143 140 138 137 136 136 136 137 138 139 139 140 141 141 140 138 137 136 134 134 135 136 137 137 137 138 135 131 131 134 139 143 141 138 136 134 132
138 144 152 151 148 147 147 146 144 143 142 142 142 143 143 143 142 143 144 143 143 141 139 138 138 138 139 139 140 142 143 143 137 140 140 142 144 149 147 145 142 140 139
135 142 152 151 150 148 150 151 150 149 148 147 148 148 148 147 147 147 148 148 147 146 145 144 143 142 142 142 143 144 147 147 144 149 150 154 157 156 154 151 148 147 146
135 138 150 154 153 152 154 156 155 154 153 153 153 153 153 152 152 152 154 155 155 154 153 151 149 147 146 145 144 145 151 154 153 157 160 164 166 162 160 157 154 153 152
126 131 141 153 156 157 158 160 160 160 160 160 160 159 160 159 159 161 162 163 163 161 161 160 158 156 154 150 149 148 152 153 152 161 167 171 173 169 166 163 160 158 158
120 130 137 147 151 154 160 166 166 166 166 166 166 167 168 169 170 172 172 173 173 172 172 170 168 166 163 160 159 154 145 142 150 163 167 175 178 176 172 169 167 164 163
131 136 147 148 147 151 159 171 172 171 172 172 174 175 175 176 177 180 182 183 184 184 184 181 177 174 172 171 172 167 150 148 159 166 174 181 182 183 178 175 173 171 168
155 157 151 152 152 153 164 169 169 171 172 172 175 177 175 176 184 187 192 194 194 193 192 190 187 182 174 171 178 171 163 167 172 180 190 191 190 187 182 179 178 176 173
153 153 151 157 158 159 159 158 164 164 168 172 176 178 174 174 185 190 192 204 203 199 196 197 192 179 171 176 182 181 179 182 188 197 202 195 192 188 185 181 182 178 174
143 149 153 149 152 159 157 157 161 165 170 175 177 179 174 175 184 188 189 193 196 196 190 190 189 184 180 186 193 192 187 186 189 196 202 193 189 186 184 183 180 175 169
145 159 164 154 155 159 144 157 160 161 166 173 173 182 183 183 187 190 195 194 199 198 192 194 194 189 184 186 194 192 187 186 185 182 189 188 184 183 182 179 175 170 162
150 156 146 151 145 136 140 150 155 166 168 168 179 189 187 189 189 189 193 194 201 203 197 196 195 186 183 178 186 179 170 168 167 162 166 172 172 172 173 168 166 162 155
145 142 149 156 135 137 145 149 147 160 169 169 181 193 195 195 195 194 193 197 204 200 191 189 192 184 179 173 168 153 144 146 145 144 146 148 152 156 156 153 153 153 147
91 110 117 150 137 143 134 139 147 131 147 167 177 186 201 206 206 199 195 202 203 196 193 195 189 183 175 157 143 131 125 129 128 130 131 134 134 136 139 141 140 139 137
71 85 81 68 123 156 133 118 100 112 114 129 149 155 199 210 207 203 204 201 194 202 201 201 191 178 168 153 138 119 111 111 108 117 119 120 124 127 130 132 133 134 133
48 59 62 46 29 44 81 71 71 84 96 102 111 117 169 204 203 205 210 198 196 207 205 193 181 169 161 151 132 110 93 92 94 102 114 114 118 119 121 122 125 128 126
40 40 36 31 19 32 56 62 75 71 55 79 82 70 81 115 178 207 212 196 199 210 209 191 174 163 161 145 128 120 78 72 81 91 104 110 111 113 113 114 116 119 119
35 33 33 28 23 25 17 14 74 64 48 51 57 55 58 61 87 156 162 201 196 197 198 194 174 169 170 170 154 141 144 114 75 76 96 114 113 111 111 111 110 109 108
26 25 25 22 32 30 32 49 62 68 47 35 37 32 49 68 59 56 101 175 180 177 194 197 186 179 180 182 170 155 159 174 141 85 89 109 118 115 114 111 111 109 107
19 20 25 29 34 27 36 55 58 72 68 36 37 44 40 51 51 49 50 73 152 165 181 196 189 196 177 176 169 136 127 141 148 140 105 101 113 112 115 118 114 109 109
24 25 23 32 38 29 29 40 51 57 64 54 55 55 47 42 45 47 50 51 48 51 69 154 193 189 180 176 164 145 113 97 104 138 148 140 102 85 96 104 111 110 111
27 29 28 37 37 31 33 36 39 49 62 64 57 47 40 40 41 40 45 42 43 50 52 48 76 153 157 152 139 137 145 147 148 138 143 144 124 84 77 86 102 113 116
Height
1506 1509 1513 1516 1519 1523 1525 1528 1530 1533 1535 1537 1539 1542 1544 1546 1547 1549 1551 1552 1554 1555 1557 1558 1559 1560 1562 1563 1563 1564 1565 1566 1566 1567 1568 1568 1569 1570 1571 1571 1572 1572 1573
1505 1509 1513 1516 1520 1523 1526 1529 1531 1534 1536 1538 1540 1543 1545 1547 1549 1550 1552 1553 1555 1556 1558 1559 1560 1561 1562 1563 1564 1565 1566 1567 1567 1568 1569 1570 1571 1572 1572 1573 1574 1574 1575
1505 1509 1513 1517 1521 1524 1527 1530 1532 1535 1537 1540 1542 1544 1546 1548 1550 1551 1553 1555 1556 1557 1558 1560 1561 1562 1563 1564 1565 1566 1567 1568 1568 1569 1570 1571 1572 1573 1574 1575 1575 1576 1577
1506 1510 1514 1518 1521 1525 1528 1531 1533 1536 1538 1541 1543 1545 1547 1549 1551 1552 1554 1555 1557 1558 1559 1560 1561 1562 1563 1564 1566 1567 1568 1568 1570 1571 1572 1573 1574 1575 1575 1576 1577 1577 1578
1508 1512 1515 1519 1522 1526 1529 1532 1535 1537 1539 1542 1544 1546 1548 1550 1552 1553 1555 1556 1557 1559 1560 1561 1562 1563 1564 1565 1566 1568 1569 1570 1571 1572 1573 1574 1575 1575 1576 1577 1578 1578 1579
1509 1513 1516 1520 1523 1527 1530 1533 1536 1538 1540 1542 1545 1547 1549 1551 1552 1554 1555 1557 1558 1559 1560 1561 1562 1563 1565 1566 1567 1568 1570 1571 1572 1573 1574 1574 1575 1576 1577 1578 1579 1579 1580
1510 1514 1518 1521 1524 1528 1531 1534 1536 1539 1541 1543 1545 1548 1550 1551 1553 1554 1556 1557 1558 1559 1560 1561 1563 1564 1565 1566 1568 1569 1570 1572 1573 1574 1575 1575 1576 1577 1578 1579 1579 1580 1581
1512 1515 1518 1522 1525 1528 1531 1534 1537 1539 1541 1544 1546 1548 1550 1552 1553 1555 1556 1557 1558 1559 1561 1562 1563 1564 1566 1567 1568 1570 1571 1572 1573 1574 1575 1576 1577 1578 1578 1579 1580 1581 1581
1513 1516 1519 1522 1525 1529 1532 1534 1537 1540 1542 1544 1546 1548 1549 1551 1553 1554 1556 1557 1558 1559 1561 1562 1563 1564 1566 1567 1569 1570 1571 1573 1574 1575 1576 1576 1577 1578 1579 1580 1580 1581 1582
1514 1517 1520 1523 1525 1528 1532 1534 1537 1539 1541 1544 1545 1547 1549 1550 1552 1553 1555 1556 1558 1559 1560 1562 1563 1564 1566 1567 1568 1570 1571 1573 1574 1575 1576 1576 1577 1578 1579 1580 1580 1581 1582
1515 1518 1520 1522 1525 1528 1531 1533 1536 1538 1540 1543 1544 1546 1548 1549 1551 1552 1554 1555 1557 1558 1560 1561 1562 1564 1565 1566 1568 1569 1571 1572 1573 1575 1576 1576 1577 1578 1579 1579 1580 1581 1582
1514 1517 1520 1522 1525 1527 1530 1532 1534 1537 1539 1541 1543 1545 1547 1548 1550 1551 1553 1554 1556 1557 1558 1560 1561 1563 1564 1565 1567 1568 1570 1571 1573 1574 1575 1576 1577 1577 1578 1579 1580 1581 1581
1513 1516 1518 1521 1524 1526 1528 1530 1532 1535 1537 1539 1541 1543 1545 1547 1548 1550 1551 1553 1554 1555 1557 1559 1560 1561 1563 1564 1566 1567 1569 1570 1571 1573 1574 1575 1576 1577 1578 1578 1579 1580 1581
1514 1515 1517 1520 1522 1525 1527 1529 1530 1533 1535 1537 1539 1541 1543 1544 1546 1548 1549 1551 1552 1554 1555 1557 1558 1560 1561 1563 1564 1566 1567 1568 1570 1571 1573 1574 1575 1576 1577 1578 1578 1579 1580
1514 1515 1517 1518 1520 1523 1525 1527 1529 1530 1532 1534 1536 1538 1540 1542 1544 1545 1547 1549 1550 1552 1553 1555 1556 1558 1559 1561 1562 1564 1565 1567 1568 1570 1571 1572 1574 1574 1576 1576 1577 1578 1579
1513 1515 1516 1517 1519 1521 1523 1525 1527 1528 1530 1531 1533 1535 1537 1539 1541 1542 1544 1546 1547 1549 1551 1552 1553 1555 1557 1558 1560 1561 1563 1564 1566 1567 1569 1571 1572 1573 1574 1575 1576 1577 1577
1513 1514 1515 1516 1518 1519 1521 1523 1524 1526 1527 1528 1530 1531 1534 1536 1538 1539 1541 1542 1544 1546 1548 1549 1550 1552 1553 1555 1557 1558 1560 1562 1563 1565 1567 1568 1570 1571 1572 1573 1574 1575 1576
1513 1514 1515 1516 1517 1518 1519 1521 1521 1522 1523 1525 1526 1528 1530 1532 1534 1536 1538 1539 1541 1543 1544 1546 1547 1548 1550 1551 1553 1555 1557 1559 1561 1562 1564 1566 1568 1569 1570 1571 1573 1574 1574
1513 1514 1514 1514 1515 1517 1518 1519 1520 1520 1521 1522 1524 1524 1526 1528 1530 1532 1534 1536 1538 1539 1541 1542 1543 1544 1546 1548 1550 1552 1554 1556 1558 1560 1562 1563 1565 1567 1568 1569 1570 1572 1573
1512 1512 1513 1514 1515 1516 1516 1517 1518 1518 1519 1520 1521 1522 1523 1525 1526 1528 1530 1532 1534 1535 1537 1538 1539 1540 1542 1544 1546 1548 1551 1553 1555 1557 1559 1560 1562 1564 1566 1567 1568 1570 1571
1511 1511 1512 1512 1513 1514 1514 1515 1516 1516 1517 1517 1518 1519 1520 1521 1523 1525 1527 1528 1529 1531 1532 1533 1535 1536 1538 1541 1543 1545 1548 1550 1551 1554 1556 1558 1559 1561 1563 1565 1566 1568 1569
1511 1511 1511 1511 1512 1512 1513 1513 1514 1514 1515 1515 1515 1515 1516 1517 1519 1521 1522 1523 1525 1526 1528 1529 1531 1532 1534 1536 1539 1541 1544 1547 1548 1550 1553 1555 1556 1558 1560 1562 1564 1566 1567
1511 1511 1510 1511 1511 1511 1511 1512 1512 1513 1513 1513 1513 1513 1514 1515 1516 1517 1518 1520 1521 1522 1524 1525 1527 1528 1530 1532 1534 1537 1539 1541 1544 1547 1549 1551 1553 1555 1558 1560 1562 1564 1565
1511 1511 1510 1510 1510 1510 1510 1510 1511 1511 1511 1511 1512 1512 1512 1513 1513 1514 1516 1516 1518 1519 1520 1522 1523 1524 1526 1528 1530 1532 1535 1536 1539 1543 1546 1548 1550 1553 1555 1557 1560 1561 1563
1512 1511 1511 1510 1509 1509 1508 1509 1509 1509 1509 1510 1510 1510 1511 1511 1511 1512 1513 1514 1515 1516 1517 1519 1520 1521 1522 1524 1526 1528 1531 1533 1535 1538 1541 1545 1548 1551 1553 1555 1558 1560 1561
1513 1512 1511 1510 1509 1509 1508 1508 1509 1509 1508 1509 1509 1509 1509 1510 1510 1511 1512 1512 1514 1514 1515 1516 1517 1517 1519 1521 1523 1525 1527 1529 1531 1534 1536 1540 1544 1548 1551 1553 1556 1558 1560